Time,TemperatureF,DewpointF,PressureIn,WindDirection,WindDirectionDegrees,WindSpeedMPH,WindSpeedGustMPH,Humidity,HourlyPrecipIn,Conditions,Clouds,dailyrainin,SoftwareType,DateUTC
2013-12-18 00:00:00,21.3,17.5,30.03,West,275,0.0,3.0,85,0.00,,---,0.00,VWS V14.00,2013-12-18 05:00:00,
2013-12-18 00:04:00,21.5,17.7,30.03,West,270,2.0,4.0,85,0.00,,---,0.00,VWS V14.00,2013-12-18 05:04:00,
2013-12-18 00:09:00,21.6,17.8,30.03,West,269,3.0,4.0,85,0.00,,---,0.00,VWS V14.00,2013-12-18 05:09:00,
2013-12-18 00:14:00,21.7,17.9,30.03,WSW,255,3.0,5.0,85,0.00,,---,0.00,VWS V14.00,2013-12-18 05:14:00,
2013-12-18 00:19:00,21.9,18.1,30.03,WSW,250,4.0,5.0,85,0.00,,---,0.00,VWS V14.00,2013-12-18 05:19:00,
2013-12-18 00:24:00,22.0,18.2,30.03,WSW,250,0.0,5.0,85,0.00,,---,0.00,VWS V14.00,2013-12-18 05:24:00,
2013-12-18 00:29:00,22.0,18.2,30.03,WSW,249,0.0,2.0,85,0.00,,---,0.00,VWS V14.00,2013-12-18 05:29:00,
2013-12-18 00:30:00,22.0,18.2,30.03,WSW,250,2.0,5.0,85,0.00,,---,0.00,VWS V14.00,2013-12-18 05:30:00,
2013-12-18 00:34:00,22.2,18.4,30.03,WSW,250,2.0,3.0,85,0.00,,---,0.00,VWS V14.00,2013-12-18 05:34:00,
2013-12-18 00:39:00,22.3,18.5,30.03,WSW,250,3.0,4.0,85,0.00,,---,0.00,VWS V14.00,2013-12-18 05:39:00,
2013-12-18 00:44:00,22.4,18.6,30.03,WSW,248,3.0,5.0,85,0.00,,---,0.00,VWS V14.00,2013-12-18 05:44:00,
2013-12-18 00:49:00,22.5,18.7,30.03,WSW,248,1.0,5.0,85,0.00,,---,0.00,VWS V14.00,2013-12-18 05:49:00,
2013-12-18 00:54:00,22.5,18.7,30.03,WSW,248,2.0,5.0,85,0.00,,---,0.00,VWS V14.00,2013-12-18 05:54:00,
2013-12-18 00:59:00,22.6,18.8,30.02,WSW,244,4.0,5.0,85,0.00,,---,0.00,VWS V14.00,2013-12-18 05:59:00,
2013-12-18 01:00:00,22.6,18.8,30.03,WSW,248,3.0,5.0,85,0.00,,---,0.00,VWS V14.00,2013-12-18 06:00:00,
2013-12-18 01:04:00,22.6,18.8,30.03,WSW,242,3.0,5.0,85,0.00,,---,0.00,VWS V14.00,2013-12-18 06:04:00,
2013-12-18 01:09:00,22.6,19.0,30.03,WSW,241,2.0,5.0,86,0.00,,---,0.00,VWS V14.00,2013-12-18 06:09:00,
2013-12-18 01:14:00,22.7,19.1,30.03,WSW,240,5.0,6.0,86,0.00,,---,0.00,VWS V14.00,2013-12-18 06:14:00,
2013-12-18 01:19:00,22.9,19.4,30.03,WSW,239,4.0,6.0,86,0.00,,---,0.00,VWS V14.00,2013-12-18 06:19:00,
2013-12-18 01:24:00,22.9,19.4,30.03,WSW,239,1.0,6.0,86,0.00,,---,0.00,VWS V14.00,2013-12-18 06:24:00,
2013-12-18 01:30:00,23.0,19.5,30.03,WSW,239,4.0,5.0,86,0.00,,---,0.00,VWS V14.00,2013-12-18 06:30:00,
2013-12-18 01:35:00,23.0,19.5,30.03,WSW,238,3.0,5.0,86,0.00,,---,0.00,VWS V14.00,2013-12-18 06:35:00,
2013-12-18 01:40:00,23.0,19.5,30.03,WSW,237,5.0,6.0,86,0.00,,---,0.00,VWS V14.00,2013-12-18 06:40:00,
2013-12-18 01:45:00,23.0,19.5,30.03,SW,222,3.0,8.0,86,0.00,,---,0.00,VWS V14.00,2013-12-18 06:45:00,
2013-12-18 01:50:00,23.0,19.5,30.03,SW,219,4.0,8.0,86,0.00,,---,0.00,VWS V14.00,2013-12-18 06:50:00,
2013-12-18 01:55:00,23.0,19.7,30.03,SW,215,3.0,8.0,87,0.00,,---,0.00,VWS V14.00,2013-12-18 06:55:00,
2013-12-18 02:00:00,23.1,19.8,30.03,SW,221,5.0,8.0,87,0.00,,---,0.00,VWS V14.00,2013-12-18 07:00:00,
2013-12-18 02:05:00,23.1,19.8,30.03,SW,219,5.0,8.0,87,0.00,,---,0.00,VWS V14.00,2013-12-18 07:05:00,
2013-12-18 02:10:00,23.1,19.8,30.03,SSW,213,6.0,8.0,87,0.00,,---,0.00,VWS V14.00,2013-12-18 07:10:00,
2013-12-18 02:15:00,23.1,19.8,30.03,SW,216,4.0,8.0,87,0.00,,---,0.00,VWS V14.00,2013-12-18 07:15:00,
2013-12-18 02:20:00,23.0,19.7,30.03,SW,217,5.0,8.0,87,0.00,,---,0.00,VWS V14.00,2013-12-18 07:20:00,
2013-12-18 02:25:00,23.0,19.7,30.03,SW,217,7.0,8.0,87,0.00,,---,0.00,VWS V14.00,2013-12-18 07:25:00,
2013-12-18 02:30:00,23.0,19.7,30.03,SW,222,5.0,7.0,87,0.00,,---,0.00,VWS V14.00,2013-12-18 07:30:00,
2013-12-18 02:35:00,23.1,19.8,30.03,SW,222,4.0,7.0,87,0.00,,---,0.00,VWS V14.00,2013-12-18 07:35:00,
2013-12-18 02:40:00,23.2,19.9,30.03,SW,216,6.0,7.0,87,0.00,,---,0.00,VWS V14.00,2013-12-18 07:40:00,
2013-12-18 02:45:00,23.2,19.9,30.03,SW,215,3.0,8.0,87,0.00,,---,0.00,VWS V14.00,2013-12-18 07:45:00,
2013-12-18 02:50:00,23.1,19.8,30.03,SSW,212,4.0,8.0,87,0.00,,---,0.00,VWS V14.00,2013-12-18 07:50:00,
2013-12-18 02:55:00,23.1,19.8,30.03,SW,219,4.0,8.0,87,0.00,,---,0.00,VWS V14.00,2013-12-18 07:55:00,
2013-12-18 03:00:00,23.1,19.8,30.04,SW,214,3.0,7.0,87,0.00,,---,0.00,VWS V14.00,2013-12-18 08:00:00,
2013-12-18 03:05:00,23.1,20.1,30.04,SSW,202,5.0,8.0,88,0.00,,---,0.00,VWS V14.00,2013-12-18 08:05:00,
2013-12-18 03:10:00,23.2,20.2,30.04,SW,219,4.0,9.0,88,0.00,,---,0.00,VWS V14.00,2013-12-18 08:10:00,
2013-12-18 03:15:00,23.3,20.3,30.04,SW,221,6.0,9.0,88,0.00,,---,0.00,VWS V14.00,2013-12-18 08:15:00,
2013-12-18 03:20:00,23.4,20.4,30.04,SW,221,5.0,9.0,88,0.00,,---,0.00,VWS V14.00,2013-12-18 08:20:00,
2013-12-18 03:25:00,23.5,20.5,30.04,SW,217,6.0,9.0,88,0.00,,---,0.00,VWS V14.00,2013-12-18 08:25:00,
2013-12-18 03:30:00,23.6,20.6,30.04,SW,219,6.0,8.0,88,0.00,,---,0.00,VWS V14.00,2013-12-18 08:30:00,
2013-12-18 03:35:00,23.7,20.9,30.04,SW,221,9.0,9.0,89,0.00,,---,0.00,VWS V14.00,2013-12-18 08:35:00,
2013-12-18 03:40:00,23.8,21.0,30.04,SW,227,1.0,9.0,89,0.00,,---,0.00,VWS V14.00,2013-12-18 08:40:00,
2013-12-18 03:45:00,23.9,21.1,30.04,SW,217,5.0,9.0,89,0.00,,---,0.00,VWS V14.00,2013-12-18 08:45:00,
2013-12-18 03:50:00,24.0,21.2,30.04,SSW,213,5.0,9.0,89,0.00,,---,0.00,VWS V14.00,2013-12-18 08:50:00,
2013-12-18 03:55:00,24.0,21.2,30.04,SW,214,5.0,9.0,89,0.00,,---,0.00,VWS V14.00,2013-12-18 08:55:00,
2013-12-18 04:00:00,24.1,21.3,30.04,SW,221,3.0,8.0,89,0.00,,---,0.00,VWS V14.00,2013-12-18 09:00:00,
2013-12-18 04:05:00,24.2,21.4,30.04,SW,219,3.0,9.0,89,0.00,,---,0.00,VWS V14.00,2013-12-18 09:05:00,
2013-12-18 04:10:00,24.3,21.5,30.04,SSW,208,4.0,9.0,89,0.00,,---,0.00,VWS V14.00,2013-12-18 09:10:00,
2013-12-18 04:15:00,24.3,21.5,30.04,SW,219,4.0,9.0,89,0.00,,---,0.00,VWS V14.00,2013-12-18 09:15:00,
2013-12-18 04:20:00,24.4,21.6,30.04,SW,224,5.0,9.0,89,0.00,,---,0.00,VWS V14.00,2013-12-18 09:20:00,
2013-12-18 04:25:00,24.5,21.7,30.04,SW,221,4.0,9.0,89,0.00,,---,0.00,VWS V14.00,2013-12-18 09:25:00,
2013-12-18 04:30:00,24.8,22.0,30.04,SW,218,2.0,7.0,89,0.00,,---,0.00,VWS V14.00,2013-12-18 09:30:00,
2013-12-18 04:35:00,25.0,22.2,30.04,WSW,249,5.0,9.0,89,0.00,,---,0.00,VWS V14.00,2013-12-18 09:35:00,
2013-12-18 04:40:00,25.1,22.3,30.04,WSW,255,7.0,9.0,89,0.00,,---,0.00,VWS V14.00,2013-12-18 09:40:00,
2013-12-18 04:45:00,25.1,22.3,30.05,SW,220,4.0,9.0,89,0.00,,---,0.00,VWS V14.00,2013-12-18 09:45:00,
2013-12-18 04:50:00,25.1,22.3,30.04,WSW,237,5.0,9.0,89,0.00,,---,0.00,VWS V14.00,2013-12-18 09:50:00,
2013-12-18 04:55:00,25.2,22.4,30.05,SW,225,5.0,9.0,89,0.00,,---,0.00,VWS V14.00,2013-12-18 09:55:00,
2013-12-18 05:00:00,25.2,22.4,30.05,SW,235,6.0,8.0,89,0.00,,---,0.00,VWS V14.00,2013-12-18 10:00:00,
2013-12-18 05:05:00,25.3,22.5,30.05,WSW,238,4.0,9.0,89,0.00,,---,0.00,VWS V14.00,2013-12-18 10:05:00,
2013-12-18 05:10:00,25.3,22.5,30.05,SW,219,6.0,9.0,89,0.00,,---,0.00,VWS V14.00,2013-12-18 10:10:00,
2013-12-18 05:15:00,25.3,22.2,30.05,WSW,238,3.0,9.0,88,0.00,,---,0.00,VWS V14.00,2013-12-18 10:15:00,
2013-12-18 05:20:00,25.3,22.2,30.05,WSW,238,3.0,9.0,88,0.00,,---,0.00,VWS V14.00,2013-12-18 10:20:00,
2013-12-18 05:25:00,25.4,22.4,30.05,WSW,242,4.0,9.0,88,0.00,,---,0.00,VWS V14.00,2013-12-18 10:25:00,
2013-12-18 05:30:00,25.5,22.5,30.05,WSW,243,4.0,9.0,88,0.00,,---,0.00,VWS V14.00,2013-12-18 10:30:00,
2013-12-18 05:35:00,25.6,22.5,30.05,West,260,7.0,9.0,88,0.00,,---,0.00,VWS V14.00,2013-12-18 10:35:00,
2013-12-18 05:40:00,25.6,22.5,30.05,West,259,8.0,9.0,88,0.00,,---,0.00,VWS V14.00,2013-12-18 10:40:00,
2013-12-18 05:45:00,25.6,22.5,30.06,WSW,252,5.0,9.0,88,0.00,,---,0.00,VWS V14.00,2013-12-18 10:45:00,
2013-12-18 05:50:00,25.6,22.5,30.06,West,261,6.0,10.0,88,0.00,,---,0.00,VWS V14.00,2013-12-18 10:50:00,
2013-12-18 05:55:00,25.7,22.6,30.06,WSW,246,5.0,10.0,88,0.00,,---,0.00,VWS V14.00,2013-12-18 10:55:00,
2013-12-18 06:00:00,25.7,22.6,30.06,WSW,254,3.0,8.0,88,0.00,,---,0.00,VWS V14.00,2013-12-18 11:00:00,
2013-12-18 06:05:00,25.7,22.6,30.06,WSW,255,3.0,9.0,88,0.00,,---,0.00,VWS V14.00,2013-12-18 11:05:00,
2013-12-18 06:10:00,25.7,22.6,30.06,WSW,240,6.0,9.0,88,0.00,,---,0.00,VWS V14.00,2013-12-18 11:10:00,
2013-12-18 06:15:00,25.7,22.6,30.06,West,259,6.0,9.0,88,0.00,,---,0.00,VWS V14.00,2013-12-18 11:15:00,
2013-12-18 06:20:00,25.8,22.7,30.06,WSW,250,5.0,9.0,88,0.00,,---,0.00,VWS V14.00,2013-12-18 11:20:00,
2013-12-18 06:25:00,25.9,22.8,30.06,SW,229,4.0,9.0,88,0.00,,---,0.00,VWS V14.00,2013-12-18 11:25:00,
2013-12-18 06:30:00,25.9,22.8,30.06,WSW,238,4.0,8.0,88,0.00,,---,0.00,VWS V14.00,2013-12-18 11:30:00,
2013-12-18 06:35:00,25.8,22.7,30.06,WSW,240,5.0,8.0,88,0.00,,---,0.00,VWS V14.00,2013-12-18 11:35:00,
2013-12-18 06:40:00,25.7,22.9,30.07,WSW,243,5.0,8.0,89,0.00,,---,0.00,VWS V14.00,2013-12-18 11:40:00,
2013-12-18 06:45:00,25.7,22.9,30.07,WSW,242,5.0,8.0,89,0.00,,---,0.00,VWS V14.00,2013-12-18 11:45:00,
2013-12-18 06:50:00,25.6,22.8,30.07,WSW,242,4.0,8.0,89,0.00,,---,0.00,VWS V14.00,2013-12-18 11:50:00,
2013-12-18 06:55:00,25.6,22.8,30.07,WSW,249,4.0,9.0,89,0.00,,---,0.00,VWS V14.00,2013-12-18 11:55:00,
2013-12-18 07:00:00,25.7,22.6,30.07,WSW,257,5.0,8.0,88,0.00,,---,0.00,VWS V14.00,2013-12-18 12:00:00,
2013-12-18 07:05:00,25.7,22.6,30.08,West,259,6.0,8.0,88,0.00,,---,0.00,VWS V14.00,2013-12-18 12:05:00,
2013-12-18 07:10:00,25.8,22.7,30.07,West,271,3.0,8.0,88,0.00,,---,0.00,VWS V14.00,2013-12-18 12:10:00,
2013-12-18 07:15:00,25.8,22.7,30.08,WSW,258,3.0,8.0,88,0.00,,---,0.00,VWS V14.00,2013-12-18 12:15:00,
2013-12-18 07:20:00,25.9,22.8,30.08,WSW,255,1.0,8.0,88,0.00,,---,0.00,VWS V14.00,2013-12-18 12:20:00,
2013-12-18 07:25:00,25.9,22.8,30.07,NW,321,4.0,8.0,88,0.00,,---,0.00,VWS V14.00,2013-12-18 12:25:00,
2013-12-18 07:30:00,26.1,22.8,30.08,WNW,298,2.0,11.0,87,0.00,,---,0.00,VWS V14.00,2013-12-18 12:30:00,
2013-12-18 07:35:00,26.1,22.8,30.08,West,273,5.0,11.0,87,0.00,,---,0.00,VWS V14.00,2013-12-18 12:35:00,
2013-12-18 07:40:00,26.1,22.8,30.08,West,263,3.0,11.0,87,0.00,,---,0.00,VWS V14.00,2013-12-18 12:40:00,
2013-12-18 07:45:00,26.1,22.8,30.08,West,265,6.0,11.0,87,0.00,,---,0.00,VWS V14.00,2013-12-18 12:45:00,
2013-12-18 07:50:00,26.1,22.8,30.08,West,264,5.0,11.0,87,0.00,,---,0.00,VWS V14.00,2013-12-18 12:50:00,
2013-12-18 07:55:00,26.1,22.8,30.09,West,259,8.0,11.0,87,0.00,,---,0.00,VWS V14.00,2013-12-18 12:55:00,
2013-12-18 08:00:00,26.1,22.8,30.09,West,267,5.0,7.0,87,0.00,,---,0.00,VWS V14.00,2013-12-18 13:00:00,
2013-12-18 08:06:00,26.1,22.5,30.09,West,267,4.0,9.0,86,0.00,,---,0.00,VWS V14.00,2013-12-18 13:06:00,
2013-12-18 08:11:00,26.1,22.5,30.09,West,270,3.0,10.0,86,0.00,,---,0.00,VWS V14.00,2013-12-18 13:11:00,
2013-12-18 08:16:00,26.1,22.5,30.09,West,267,3.0,10.0,86,0.00,,---,0.00,VWS V14.00,2013-12-18 13:16:00,
2013-12-18 08:21:00,26.1,22.5,30.10,WSW,251,6.0,10.0,86,0.00,,---,0.00,VWS V14.00,2013-12-18 13:21:00,
2013-12-18 08:26:00,26.1,22.2,30.10,West,267,7.0,10.0,85,0.00,,---,0.00,VWS V14.00,2013-12-18 13:26:00,
2013-12-18 08:30:00,26.1,22.2,30.10,WNW,284,4.0,10.0,85,0.00,,---,0.00,VWS V14.00,2013-12-18 13:30:00,
2013-12-18 08:31:00,26.2,22.0,30.10,WSW,256,6.0,10.0,84,0.00,,---,0.00,VWS V14.00,2013-12-18 13:31:00,
2013-12-18 08:36:00,26.2,22.0,30.10,West,266,3.0,10.0,84,0.00,,---,0.00,VWS V14.00,2013-12-18 13:36:00,
2013-12-18 08:41:00,26.2,22.3,30.10,West,262,5.0,10.0,85,0.00,,---,0.00,VWS V14.00,2013-12-18 13:41:00,
2013-12-18 08:46:00,26.2,22.3,30.10,WSW,249,6.0,10.0,85,0.00,,---,0.00,VWS V14.00,2013-12-18 13:46:00,
2013-12-18 08:51:00,26.1,22.2,30.10,WSW,256,5.0,10.0,85,0.00,,---,0.00,VWS V14.00,2013-12-18 13:51:00,
2013-12-18 08:56:00,26.1,21.9,30.10,WNW,293,6.0,10.0,84,0.00,,---,0.00,VWS V14.00,2013-12-18 13:56:00,
2013-12-18 09:00:00,26.1,21.9,30.10,West,270,5.0,10.0,84,0.00,,---,0.00,VWS V14.00,2013-12-18 14:00:00,
2013-12-18 09:01:00,26.2,21.5,30.10,West,267,6.0,9.0,82,0.00,,---,0.00,VWS V14.00,2013-12-18 14:01:00,
2013-12-18 09:06:00,26.2,20.9,30.11,West,261,7.0,11.0,80,0.00,,---,0.00,VWS V14.00,2013-12-18 14:06:00,
2013-12-18 09:11:00,26.1,20.2,30.11,WSW,254,6.0,13.0,78,0.00,,---,0.00,VWS V14.00,2013-12-18 14:11:00,
2013-12-18 09:16:00,26.0,19.8,30.11,West,260,9.0,13.0,77,0.00,,---,0.00,VWS V14.00,2013-12-18 14:16:00,
2013-12-18 09:21:00,25.8,19.6,30.11,WSW,254,7.0,13.0,77,0.00,,---,0.00,VWS V14.00,2013-12-18 14:21:00,
2013-12-18 09:26:00,25.5,19.0,30.11,WSW,249,6.0,13.0,76,0.00,,---,0.00,VWS V14.00,2013-12-18 14:26:00,
2013-12-18 09:30:00,25.5,19.0,30.11,West,263,7.0,13.0,76,0.00,,---,0.00,VWS V14.00,2013-12-18 14:30:00,
2013-12-18 09:31:00,25.3,18.8,30.11,WSW,250,5.0,11.0,76,0.00,,---,0.00,VWS V14.00,2013-12-18 14:31:00,
2013-12-18 09:36:00,25.1,18.6,30.11,West,262,4.0,12.0,76,0.00,,---,0.00,VWS V14.00,2013-12-18 14:36:00,
2013-12-18 09:41:00,25.1,18.6,30.11,WSW,252,6.0,12.0,76,0.00,,---,0.00,VWS V14.00,2013-12-18 14:41:00,
2013-12-18 09:46:00,25.2,18.4,30.11,WSW,258,8.0,12.0,75,0.00,,---,0.00,VWS V14.00,2013-12-18 14:46:00,
2013-12-18 09:51:00,25.2,18.4,30.12,WSW,250,6.0,12.0,75,0.00,,---,0.00,VWS V14.00,2013-12-18 14:51:00,
2013-12-18 09:56:00,25.1,18.3,30.12,West,265,7.0,12.0,75,0.00,,---,0.00,VWS V14.00,2013-12-18 14:56:00,
2013-12-18 10:00:00,25.1,18.3,30.12,West,261,8.0,12.0,75,0.00,,---,0.00,VWS V14.00,2013-12-18 15:00:00,
2013-12-18 10:01:00,25.2,18.4,30.12,WSW,246,6.0,10.0,75,0.00,,---,0.00,VWS V14.00,2013-12-18 15:01:00,
2013-12-18 10:06:00,25.4,18.6,30.12,West,277,8.0,11.0,75,0.00,,---,0.00,VWS V14.00,2013-12-18 15:06:00,
2013-12-18 10:11:00,25.6,18.8,30.12,West,270,5.0,11.0,75,0.00,,---,0.00,VWS V14.00,2013-12-18 15:11:00,
2013-12-18 10:16:00,25.6,18.5,30.12,WSW,254,5.0,11.0,74,0.00,,---,0.00,VWS V14.00,2013-12-18 15:16:00,
2013-12-18 10:21:00,25.7,18.3,30.12,WSW,251,7.0,11.0,73,0.00,,---,0.00,VWS V14.00,2013-12-18 15:21:00,
2013-12-18 10:26:00,25.9,18.5,30.13,WSW,248,6.0,11.0,73,0.00,,---,0.00,VWS V14.00,2013-12-18 15:26:00,
2013-12-18 10:30:00,25.9,18.5,30.13,WSW,257,9.0,11.0,73,0.00,,---,0.00,VWS V14.00,2013-12-18 15:30:00,
2013-12-18 10:31:00,26.0,18.9,30.13,WSW,246,7.0,12.0,74,0.00,,---,0.00,VWS V14.00,2013-12-18 15:31:00,
2013-12-18 10:36:00,25.8,18.7,30.12,West,259,5.0,12.0,74,0.00,,---,0.00,VWS V14.00,2013-12-18 15:36:00,
2013-12-18 10:41:00,25.7,18.6,30.12,WSW,242,4.0,12.0,74,0.00,,---,0.00,VWS V14.00,2013-12-18 15:41:00,
2013-12-18 10:46:00,25.7,18.6,30.13,WSW,240,10.0,12.0,74,0.00,,---,0.00,VWS V14.00,2013-12-18 15:46:00,
2013-12-18 10:51:00,25.6,18.5,30.13,West,261,7.0,12.0,74,0.00,,---,0.00,VWS V14.00,2013-12-18 15:51:00,
2013-12-18 10:56:00,25.6,18.5,30.13,West,263,8.0,14.0,74,0.00,,---,0.00,VWS V14.00,2013-12-18 15:56:00,
2013-12-18 11:00:00,25.6,18.5,30.13,West,268,7.0,14.0,74,0.00,,---,0.00,VWS V14.00,2013-12-18 16:00:00,
2013-12-18 11:01:00,25.6,18.5,30.14,WSW,252,9.0,11.0,74,0.00,,---,0.00,VWS V14.00,2013-12-18 16:01:00,
2013-12-18 11:06:00,25.4,18.3,30.14,WSW,252,6.0,15.0,74,0.00,,---,0.00,VWS V14.00,2013-12-18 16:06:00,
2013-12-18 11:11:00,25.5,18.7,30.14,WSW,246,8.0,15.0,75,0.00,,---,0.00,VWS V14.00,2013-12-18 16:11:00,
2013-12-18 11:16:00,25.4,18.6,30.14,SW,234,3.0,15.0,75,0.00,,---,0.00,VWS V14.00,2013-12-18 16:16:00,
2013-12-18 11:21:00,25.6,18.8,30.14,West,261,8.0,15.0,75,0.00,,---,0.00,VWS V14.00,2013-12-18 16:21:00,
2013-12-18 11:26:00,25.6,18.8,30.14,WSW,246,6.0,15.0,75,0.00,,---,0.00,VWS V14.00,2013-12-18 16:26:00,
2013-12-18 11:30:00,25.6,18.8,30.14,WSW,246,6.0,15.0,75,0.00,,---,0.00,VWS V14.00,2013-12-18 16:30:00,
2013-12-18 11:31:00,25.6,18.8,30.14,SW,232,8.0,11.0,75,0.00,,---,0.00,VWS V14.00,2013-12-18 16:31:00,
2013-12-18 11:36:00,25.6,18.8,30.13,WSW,256,9.0,14.0,75,0.00,,---,0.00,VWS V14.00,2013-12-18 16:36:00,
2013-12-18 11:41:00,25.6,18.5,30.13,WSW,244,6.0,14.0,74,0.00,,---,0.00,VWS V14.00,2013-12-18 16:41:00,
2013-12-18 11:46:00,25.6,18.5,30.13,WSW,249,12.0,14.0,74,0.00,,---,0.00,VWS V14.00,2013-12-18 16:46:00,
2013-12-18 11:51:00,25.7,18.6,30.13,WSW,246,8.0,14.0,74,0.00,,---,0.00,VWS V14.00,2013-12-18 16:51:00,
2013-12-18 11:56:00,25.9,18.8,30.13,West,262,4.0,14.0,74,0.00,,---,0.00,VWS V14.00,2013-12-18 16:56:00,
2013-12-18 12:00:00,25.9,18.8,30.13,West,262,4.0,14.0,74,0.00,,---,0.00,VWS V14.00,2013-12-18 17:00:00,
2013-12-18 12:01:00,26.0,18.9,30.13,WSW,250,8.0,12.0,74,0.00,,---,0.00,VWS V14.00,2013-12-18 17:01:00,
2013-12-18 12:06:00,25.9,18.5,30.13,West,267,8.0,15.0,73,0.00,,---,0.00,VWS V14.00,2013-12-18 17:06:00,
2013-12-18 12:11:00,26.1,18.6,30.13,WSW,242,4.0,15.0,73,0.00,,---,0.00,VWS V14.00,2013-12-18 17:11:00,
2013-12-18 12:16:00,26.1,18.6,30.12,SW,219,6.0,15.0,73,0.00,,---,0.00,VWS V14.00,2013-12-18 17:16:00,
2013-12-18 12:21:00,26.1,18.3,30.12,West,260,5.0,15.0,72,0.00,,---,0.00,VWS V14.00,2013-12-18 17:21:00,
2013-12-18 12:26:00,26.1,18.3,30.12,West,261,11.0,11.0,72,0.00,,---,0.00,VWS V14.00,2013-12-18 17:26:00,
2013-12-18 12:30:00,26.1,18.3,30.12,WSW,246,7.0,15.0,72,0.00,,---,0.00,VWS V14.00,2013-12-18 17:30:00,
2013-12-18 12:31:00,26.1,18.3,30.12,WSW,252,13.0,14.0,72,0.00,,---,0.00,VWS V14.00,2013-12-18 17:31:00,
2013-12-18 12:36:00,26.0,18.5,30.12,WSW,252,7.0,14.0,73,0.00,,---,0.00,VWS V14.00,2013-12-18 17:36:00,
2013-12-18 12:41:00,26.0,18.2,30.12,West,259,11.0,14.0,72,0.00,,---,0.00,VWS V14.00,2013-12-18 17:41:00,
2013-12-18 12:46:00,25.9,18.5,30.12,SW,217,7.0,14.0,73,0.00,,---,0.00,VWS V14.00,2013-12-18 17:46:00,
2013-12-18 12:51:00,26.0,18.5,30.12,West,261,7.0,14.0,73,0.00,,---,0.00,VWS V14.00,2013-12-18 17:51:00,
2013-12-18 12:56:00,25.9,18.5,30.12,SW,230,6.0,12.0,73,0.00,,---,0.00,VWS V14.00,2013-12-18 17:56:00,
2013-12-18 13:00:00,25.9,18.5,30.12,WSW,250,11.0,14.0,73,0.00,,---,0.00,VWS V14.00,2013-12-18 18:00:00,
2013-12-18 13:01:00,25.7,18.3,30.12,WSW,239,6.0,13.0,73,0.00,,---,0.00,VWS V14.00,2013-12-18 18:01:00,
2013-12-18 13:06:00,25.7,18.3,30.11,WSW,244,8.0,14.0,73,0.00,,---,0.00,VWS V14.00,2013-12-18 18:06:00,
2013-12-18 13:17:00,25.6,18.2,30.11,SW,222,9.0,16.0,73,0.00,,---,0.00,VWS V14.00,2013-12-18 18:17:00,
2013-12-18 13:22:00,25.6,18.2,30.11,SW,223,4.0,16.0,73,0.00,,---,0.00,VWS V14.00,2013-12-18 18:22:00,
2013-12-18 13:27:00,25.7,18.3,30.10,WSW,248,7.0,8.0,73,0.00,,---,0.00,VWS V14.00,2013-12-18 18:27:00,
2013-12-18 13:30:00,25.7,18.3,30.10,West,260,7.0,16.0,73,0.00,,---,0.00,VWS V14.00,2013-12-18 18:30:00,
2013-12-18 13:32:00,25.7,18.3,30.10,WSW,252,9.0,10.0,73,0.00,,---,0.00,VWS V14.00,2013-12-18 18:32:00,
2013-12-18 13:37:00,25.7,18.3,30.10,West,262,6.0,13.0,73,0.00,,---,0.00,VWS V14.00,2013-12-18 18:37:00,
2013-12-18 13:42:00,25.5,18.1,30.10,WSW,254,11.0,14.0,73,0.00,,---,0.00,VWS V14.00,2013-12-18 18:42:00,
2013-12-18 13:47:00,25.8,18.4,30.10,West,263,7.0,14.0,73,0.00,,---,0.00,VWS V14.00,2013-12-18 18:47:00,
2013-12-18 13:52:00,25.6,18.2,30.10,West,259,8.0,17.0,73,0.00,,---,0.00,VWS V14.00,2013-12-18 18:52:00,
2013-12-18 13:57:00,25.6,18.2,30.09,WSW,252,12.0,12.0,73,0.00,,---,0.00,VWS V14.00,2013-12-18 18:57:00,
2013-12-18 14:00:00,25.6,18.2,30.09,SW,234,5.0,17.0,73,0.00,,---,0.00,VWS V14.00,2013-12-18 19:00:00,
2013-12-18 14:02:00,25.5,18.4,30.09,SW,225,6.0,12.0,74,0.00,,---,0.00,VWS V14.00,2013-12-18 19:02:00,
2013-12-18 14:07:00,25.4,18.3,30.09,SW,231,8.0,12.0,74,0.00,,---,0.00,VWS V14.00,2013-12-18 19:07:00,
2013-12-18 14:12:00,25.5,18.4,30.09,WSW,241,7.0,14.0,74,0.00,,---,0.00,VWS V14.00,2013-12-18 19:12:00,
2013-12-18 14:17:00,25.4,18.6,30.08,WSW,257,5.0,14.0,75,0.00,,---,0.00,VWS V14.00,2013-12-18 19:17:00,
2013-12-18 14:22:00,25.6,18.8,30.08,WSW,253,6.0,14.0,75,0.00,,---,0.00,VWS V14.00,2013-12-18 19:22:00,
2013-12-18 14:27:00,25.8,19.0,30.08,SW,225,9.0,11.0,75,0.00,,---,0.00,VWS V14.00,2013-12-18 19:27:00,
2013-12-18 14:30:00,25.8,19.0,30.08,SW,225,6.0,14.0,75,0.00,,---,0.00,VWS V14.00,2013-12-18 19:30:00,
2013-12-18 14:32:00,26.0,19.2,30.08,WSW,248,10.0,12.0,75,0.00,,---,0.00,VWS V14.00,2013-12-18 19:32:00,
2013-12-18 14:37:00,26.1,19.6,30.08,SW,224,4.0,12.0,76,0.00,,---,0.00,VWS V14.00,2013-12-18 19:37:00,
2013-12-18 14:42:00,26.1,19.6,30.08,WSW,254,7.0,14.0,76,0.00,,---,0.00,VWS V14.00,2013-12-18 19:42:00,
2013-12-18 14:47:00,26.2,19.7,30.08,SW,225,8.0,16.0,76,0.00,,---,0.00,VWS V14.00,2013-12-18 19:47:00,
2013-12-18 14:52:00,26.3,19.8,30.08,SW,236,6.0,16.0,76,0.00,,---,0.00,VWS V14.00,2013-12-18 19:52:00,
2013-12-18 14:57:00,26.4,19.9,30.08,WSW,238,9.0,9.0,76,0.00,,---,0.00,VWS V14.00,2013-12-18 19:57:00,
2013-12-18 15:00:00,26.4,19.9,30.08,SW,224,9.0,16.0,76,0.00,,---,0.00,VWS V14.00,2013-12-18 20:00:00,
2013-12-18 15:02:00,26.5,20.0,30.08,SW,233,8.0,10.0,76,0.00,,---,0.00,VWS V14.00,2013-12-18 20:02:00,
2013-12-18 15:07:00,26.6,20.1,30.08,WSW,246,7.0,12.0,76,0.00,,---,0.00,VWS V14.00,2013-12-18 20:07:00,
2013-12-18 15:12:00,26.7,20.2,30.07,WSW,240,5.0,12.0,76,0.00,,---,0.00,VWS V14.00,2013-12-18 20:12:00,
2013-12-18 15:17:00,26.8,20.3,30.07,SW,236,12.0,12.0,76,0.00,,---,0.00,VWS V14.00,2013-12-18 20:17:00,
2013-12-18 15:22:00,26.9,20.4,30.07,SSW,205,11.0,14.0,76,0.00,,---,0.00,VWS V14.00,2013-12-18 20:22:00,
2013-12-18 15:27:00,26.9,20.4,30.06,SSW,204,10.0,10.0,76,0.00,,---,0.00,VWS V14.00,2013-12-18 20:27:00,
2013-12-18 15:30:00,26.9,20.4,30.06,West,269,8.0,14.0,76,0.00,,---,0.00,VWS V14.00,2013-12-18 20:30:00,
2013-12-18 15:32:00,27.0,20.5,30.06,SW,226,7.0,12.0,76,0.00,,---,0.00,VWS V14.00,2013-12-18 20:32:00,
2013-12-18 15:37:00,27.0,20.1,30.06,SW,219,6.0,12.0,75,0.00,,---,0.00,VWS V14.00,2013-12-18 20:37:00,
2013-12-18 15:42:00,26.9,20.0,30.06,SSW,207,6.0,12.0,75,0.00,,---,0.00,VWS V14.00,2013-12-18 20:42:00,
2013-12-18 15:47:00,26.9,20.0,30.06,SW,234,6.0,13.0,75,0.00,,---,0.00,VWS V14.00,2013-12-18 20:47:00,
2013-12-18 15:52:00,26.8,20.3,30.06,SW,227,6.0,13.0,76,0.00,,---,0.00,VWS V14.00,2013-12-18 20:52:00,
2013-12-18 15:57:00,26.8,20.3,30.06,SW,216,9.0,9.0,76,0.00,,---,0.00,VWS V14.00,2013-12-18 20:57:00,
2013-12-18 16:00:00,26.8,20.3,30.06,SW,222,7.0,13.0,76,0.00,,---,0.00,VWS V14.00,2013-12-18 21:00:00,
2013-12-18 16:02:00,26.7,20.2,30.06,SSW,212,3.0,10.0,76,0.00,,---,0.00,VWS V14.00,2013-12-18 21:02:00,
2013-12-18 16:07:00,26.7,20.2,30.05,SSW,204,4.0,10.0,76,0.00,,---,0.00,VWS V14.00,2013-12-18 21:07:00,
2013-12-18 16:12:00,26.7,20.2,30.05,SW,217,3.0,10.0,76,0.00,,---,0.00,VWS V14.00,2013-12-18 21:12:00,
2013-12-18 16:17:00,26.7,20.2,30.05,SSW,211,4.0,10.0,76,0.00,,---,0.00,VWS V14.00,2013-12-18 21:17:00,
2013-12-18 16:22:00,26.7,20.2,30.05,SSW,207,4.0,10.0,76,0.00,,---,0.00,VWS V14.00,2013-12-18 21:22:00,
2013-12-18 16:27:00,26.7,20.2,30.04,SSW,200,4.0,6.0,76,0.00,,---,0.00,VWS V14.00,2013-12-18 21:27:00,
2013-12-18 16:30:00,26.7,20.2,30.04,SSW,198,5.0,10.0,76,0.00,,---,0.00,VWS V14.00,2013-12-18 21:30:00,
2013-12-18 16:32:00,26.8,20.6,30.04,SSW,209,7.0,8.0,77,0.00,,---,0.00,VWS V14.00,2013-12-18 21:32:00,
2013-12-18 16:37:00,26.8,20.6,30.04,SW,221,5.0,9.0,77,0.00,,---,0.00,VWS V14.00,2013-12-18 21:37:00,
2013-12-18 16:42:00,26.7,20.5,30.03,SSW,211,5.0,9.0,77,0.00,,---,0.00,VWS V14.00,2013-12-18 21:42:00,
2013-12-18 16:47:00,26.8,20.6,30.03,SSW,201,2.0,9.0,77,0.00,,---,0.00,VWS V14.00,2013-12-18 21:47:00,
2013-12-18 16:52:00,26.8,20.6,30.03,SSW,200,3.0,9.0,77,0.00,,---,0.00,VWS V14.00,2013-12-18 21:52:00,
2013-12-18 16:57:00,26.8,20.9,30.03,SSW,200,4.0,7.0,78,0.00,,---,0.00,VWS V14.00,2013-12-18 21:57:00,
2013-12-18 17:00:00,26.8,20.9,30.03,SSW,192,1.0,9.0,78,0.00,,---,0.00,VWS V14.00,2013-12-18 22:00:00,
2013-12-18 17:02:00,26.9,21.0,30.02,SSW,197,4.0,7.0,78,0.00,,---,0.00,VWS V14.00,2013-12-18 22:02:00,
2013-12-18 17:07:00,26.9,21.0,30.02,SSW,213,6.0,7.0,78,0.00,,---,0.00,VWS V14.00,2013-12-18 22:07:00,
2013-12-18 17:12:00,26.9,21.0,30.02,South,181,3.0,7.0,78,0.00,,---,0.00,VWS V14.00,2013-12-18 22:12:00,
2013-12-18 17:17:00,27.0,21.1,30.02,SSW,204,5.0,9.0,78,0.00,,---,0.00,VWS V14.00,2013-12-18 22:17:00,
2013-12-18 17:22:00,27.0,21.1,30.02,SSW,194,1.0,9.0,78,0.00,,---,0.00,VWS V14.00,2013-12-18 22:22:00,
2013-12-18 17:27:00,27.0,21.1,30.01,South,186,2.0,4.0,78,0.00,,---,0.00,VWS V14.00,2013-12-18 22:27:00,
2013-12-18 17:30:00,27.0,21.1,30.01,SSW,194,0.0,9.0,78,0.00,,---,0.00,VWS V14.00,2013-12-18 22:30:00,
2013-12-18 17:32:00,26.9,21.0,30.01,SSE,166,5.0,6.0,78,0.00,,---,0.00,VWS V14.00,2013-12-18 22:32:00,
2013-12-18 17:37:00,26.9,21.3,30.01,SSE,167,2.0,6.0,79,0.00,,---,0.00,VWS V14.00,2013-12-18 22:37:00,
2013-12-18 17:42:00,26.9,21.3,30.01,SSE,166,2.0,6.0,79,0.00,,---,0.00,VWS V14.00,2013-12-18 22:42:00,
2013-12-18 17:47:00,27.0,21.4,30.00,South,176,2.0,8.0,79,0.00,,---,0.00,VWS V14.00,2013-12-18 22:47:00,
2013-12-18 17:52:00,27.0,21.4,30.00,SE,146,7.0,9.0,79,0.00,,---,0.00,VWS V14.00,2013-12-18 22:52:00,
2013-12-18 17:57:00,27.0,21.4,30.00,South,186,2.0,8.0,79,0.00,,---,0.00,VWS V14.00,2013-12-18 22:57:00,
2013-12-18 18:00:00,27.0,21.4,30.00,South,185,5.0,9.0,79,0.00,,---,0.00,VWS V14.00,2013-12-18 23:00:00,
2013-12-18 18:02:00,27.1,21.5,30.00,SSE,165,5.0,8.0,79,0.00,,---,0.00,VWS V14.00,2013-12-18 23:02:00,
2013-12-18 18:07:00,27.1,21.5,29.99,SE,142,7.0,8.0,79,0.00,,---,0.00,VWS V14.00,2013-12-18 23:07:00,
2013-12-18 18:12:00,27.2,21.6,29.99,South,177,8.0,9.0,79,0.00,,---,0.00,VWS V14.00,2013-12-18 23:12:00,
2013-12-18 18:17:00,27.2,21.6,29.99,SSE,152,5.0,9.0,79,0.00,,---,0.00,VWS V14.00,2013-12-18 23:17:00,
2013-12-18 18:22:00,27.2,21.6,29.98,SSE,151,4.0,11.0,79,0.00,,---,0.00,VWS V14.00,2013-12-18 23:22:00,
2013-12-18 18:27:00,27.2,21.6,29.98,SSE,153,7.0,9.0,79,0.00,,---,0.00,VWS V14.00,2013-12-18 23:27:00,
2013-12-18 18:30:00,27.1,21.5,29.98,SSE,163,8.0,11.0,79,0.00,,---,0.00,VWS V14.00,2013-12-18 23:30:00,
2013-12-18 18:32:00,27.1,21.5,29.98,SSE,150,2.0,10.0,79,0.00,,---,0.00,VWS V14.00,2013-12-18 23:32:00,
2013-12-18 18:37:00,27.1,21.5,29.97,SSE,167,4.0,12.0,79,0.00,,---,0.00,VWS V14.00,2013-12-18 23:37:00,
2013-12-18 18:42:00,27.0,21.1,29.97,SSE,150,8.0,13.0,78,0.00,,---,0.00,VWS V14.00,2013-12-18 23:42:00,
2013-12-18 18:47:00,26.9,21.0,29.97,South,188,4.0,14.0,78,0.00,,---,0.00,VWS V14.00,2013-12-18 23:47:00,
2013-12-18 18:52:00,26.7,20.5,29.96,SSE,164,8.0,14.0,77,0.00,,---,0.00,VWS V14.00,2013-12-18 23:52:00,
2013-12-18 18:57:00,26.7,20.5,29.96,SE,146,9.0,11.0,77,0.00,,---,0.00,VWS V14.00,2013-12-18 23:57:00,
2013-12-18 19:00:00,26.6,20.4,29.96,South,173,9.0,14.0,77,0.00,,---,0.00,VWS V14.00,2013-12-19 00:00:00,
2013-12-18 19:02:00,26.5,20.0,29.96,SSE,153,5.0,13.0,76,0.00,,---,0.00,VWS V14.00,2013-12-19 00:02:00,
2013-12-18 19:07:00,26.5,19.7,29.95,SSE,155,4.0,13.0,75,0.00,,---,0.00,VWS V14.00,2013-12-19 00:07:00,
2013-12-18 19:12:00,26.3,19.5,29.95,SSE,148,4.0,13.0,75,0.00,,---,0.00,VWS V14.00,2013-12-19 00:12:00,
2013-12-18 19:18:00,26.2,19.4,29.95,South,183,6.0,13.0,75,0.00,,---,0.00,VWS V14.00,2013-12-19 00:18:00,
2013-12-18 19:23:00,26.1,19.0,29.94,SSE,147,5.0,13.0,74,0.00,,---,0.00,VWS V14.00,2013-12-19 00:23:00,
2013-12-18 19:28:00,26.0,18.9,29.94,South,169,6.0,12.0,74,0.00,,---,0.00,VWS V14.00,2013-12-19 00:28:00,
2013-12-18 19:30:00,26.0,18.9,29.94,SE,138,12.0,13.0,74,0.00,,---,0.00,VWS V14.00,2013-12-19 00:30:00,
2013-12-18 19:33:00,26.0,18.9,29.94,SSE,151,6.0,13.0,74,0.00,,---,0.00,VWS V14.00,2013-12-19 00:33:00,
2013-12-18 19:38:00,25.8,18.7,29.94,SSE,167,8.0,14.0,74,0.00,,---,0.00,VWS V14.00,2013-12-19 00:38:00,
2013-12-18 19:43:00,25.8,18.7,29.93,SSE,159,6.0,14.0,74,0.00,,---,0.00,VWS V14.00,2013-12-19 00:43:00,
2013-12-18 19:48:00,25.7,18.6,29.94,SSE,163,6.0,14.0,74,0.00,,---,0.00,VWS V14.00,2013-12-19 00:48:00,
2013-12-18 19:53:00,25.6,18.8,29.94,SSE,150,7.0,14.0,75,0.00,,---,0.00,VWS V14.00,2013-12-19 00:53:00,
2013-12-18 19:58:00,25.6,18.5,29.94,SSE,153,8.0,8.0,74,0.00,,---,0.00,VWS V14.00,2013-12-19 00:58:00,
2013-12-18 20:00:00,25.6,18.5,29.94,SSE,155,4.0,14.0,74,0.00,,---,0.00,VWS V14.00,2013-12-19 01:00:00,
2013-12-18 20:03:00,25.6,18.2,29.94,SW,225,10.0,11.0,73,0.00,,---,0.00,VWS V14.00,2013-12-19 01:03:00,
2013-12-18 20:08:00,25.6,17.8,29.94,SSE,154,4.0,11.0,72,0.00,,---,0.00,VWS V14.00,2013-12-19 01:08:00,
2013-12-18 20:13:00,25.6,17.5,29.93,SE,146,5.0,12.0,71,0.00,,---,0.00,VWS V14.00,2013-12-19 01:13:00,
2013-12-18 20:18:00,25.5,17.4,29.93,SSE,151,8.0,12.0,71,0.00,,---,0.00,VWS V14.00,2013-12-19 01:18:00,
2013-12-18 20:23:00,25.4,17.0,29.92,South,170,6.0,12.0,70,0.00,,---,0.00,VWS V14.00,2013-12-19 01:23:00,
2013-12-18 20:28:00,25.4,17.0,29.92,South,171,4.0,10.0,70,0.00,,---,0.00,VWS V14.00,2013-12-19 01:28:00,
2013-12-18 20:30:00,25.4,17.0,29.92,SSE,158,5.0,12.0,70,0.00,,---,0.00,VWS V14.00,2013-12-19 01:30:00,
2013-12-18 20:33:00,25.3,16.9,29.92,SSE,158,2.0,10.0,70,0.00,,---,0.00,VWS V14.00,2013-12-19 01:33:00,
2013-12-18 20:38:00,25.3,16.9,29.93,SSE,164,4.0,10.0,70,0.00,,---,0.00,VWS V14.00,2013-12-19 01:38:00,
2013-12-18 20:43:00,25.3,16.6,29.93,SSW,207,3.0,10.0,69,0.00,,---,0.00,VWS V14.00,2013-12-19 01:43:00,
2013-12-18 20:48:00,25.2,16.5,29.93,SSW,205,3.0,10.0,69,0.00,,---,0.00,VWS V14.00,2013-12-19 01:48:00,
2013-12-18 20:53:00,25.1,16.4,29.93,SSW,205,7.0,10.0,69,0.00,,---,0.00,VWS V14.00,2013-12-19 01:53:00,
2013-12-18 20:58:00,25.1,16.4,29.93,SSE,161,5.0,6.0,69,0.00,,---,0.00,VWS V14.00,2013-12-19 01:58:00,
2013-12-18 21:00:00,25.2,16.5,29.93,SSE,165,2.0,10.0,69,0.00,,---,0.00,VWS V14.00,2013-12-19 02:00:00,
2013-12-18 21:03:00,25.0,16.3,29.92,SSW,205,4.0,9.0,69,0.00,,---,0.00,VWS V14.00,2013-12-19 02:03:00,
2013-12-18 21:08:00,24.9,16.2,29.93,SSW,205,3.0,9.0,69,0.00,,---,0.00,VWS V14.00,2013-12-19 02:08:00,
2013-12-18 21:13:00,24.8,16.1,29.93,SSW,207,3.0,9.0,69,0.00,,---,0.00,VWS V14.00,2013-12-19 02:13:00,
2013-12-18 21:18:00,24.7,16.0,29.93,South,182,1.0,9.0,69,0.00,,---,0.00,VWS V14.00,2013-12-19 02:18:00,
2013-12-18 21:23:00,24.5,16.1,29.93,South,179,4.0,9.0,70,0.00,,---,0.00,VWS V14.00,2013-12-19 02:23:00,
2013-12-18 21:28:00,24.4,16.0,29.93,South,173,1.0,5.0,70,0.00,,---,0.00,VWS V14.00,2013-12-19 02:28:00,
2013-12-18 21:30:00,24.4,16.0,29.93,South,173,5.0,9.0,70,0.00,,---,0.00,VWS V14.00,2013-12-19 02:30:00,
2013-12-18 21:33:00,24.3,15.9,29.93,South,177,0.0,7.0,70,0.00,,---,0.00,VWS V14.00,2013-12-19 02:33:00,
2013-12-18 21:38:00,24.3,15.9,29.93,South,181,3.0,7.0,70,0.00,,---,0.00,VWS V14.00,2013-12-19 02:38:00,
2013-12-18 21:43:00,24.2,15.8,29.93,South,184,1.0,7.0,70,0.00,,---,0.00,VWS V14.00,2013-12-19 02:43:00,
2013-12-18 21:48:00,24.2,15.5,29.93,SSW,202,3.0,7.0,69,0.00,,---,0.00,VWS V14.00,2013-12-19 02:48:00,
2013-12-18 21:53:00,24.1,15.4,29.93,SSW,198,3.0,7.0,69,0.00,,---,0.00,VWS V14.00,2013-12-19 02:53:00,
2013-12-18 21:58:00,24.0,15.3,29.93,SSW,192,5.0,5.0,69,0.00,,---,0.00,VWS V14.00,2013-12-19 02:58:00,
2013-12-18 22:00:00,24.0,15.3,29.93,SSW,196,0.0,7.0,69,0.00,,---,0.00,VWS V14.00,2013-12-19 03:00:00,
2013-12-18 22:03:00,23.9,15.2,29.93,SSW,198,1.0,6.0,69,0.00,,---,0.00,VWS V14.00,2013-12-19 03:03:00,
2013-12-18 22:08:00,23.8,15.1,29.92,SSW,195,1.0,6.0,69,0.00,,---,0.00,VWS V14.00,2013-12-19 03:08:00,
2013-12-18 22:13:00,23.7,15.0,29.92,South,186,1.0,6.0,69,0.00,,---,0.00,VWS V14.00,2013-12-19 03:13:00,
2013-12-18 22:18:00,23.7,15.0,29.92,South,169,4.0,6.0,69,0.00,,---,0.00,VWS V14.00,2013-12-19 03:18:00,
2013-12-18 22:23:00,23.6,14.9,29.91,SSE,159,2.0,7.0,69,0.00,,---,0.00,VWS V14.00,2013-12-19 03:23:00,
2013-12-18 22:28:00,23.7,14.7,29.91,SSE,157,2.0,9.0,68,0.00,,---,0.00,VWS V14.00,2013-12-19 03:28:00,
2013-12-18 22:30:00,23.7,14.7,29.91,SSE,156,9.0,9.0,68,0.00,,---,0.00,VWS V14.00,2013-12-19 03:30:00,
2013-12-18 22:33:00,23.7,14.7,29.91,SSE,155,2.0,9.0,68,0.00,,---,0.00,VWS V14.00,2013-12-19 03:33:00,
2013-12-18 22:38:00,23.7,14.7,29.91,SSE,154,2.0,9.0,68,0.00,,---,0.00,VWS V14.00,2013-12-19 03:38:00,
2013-12-18 22:43:00,23.7,14.7,29.91,SSE,155,2.0,9.0,68,0.00,,---,0.00,VWS V14.00,2013-12-19 03:43:00,
2013-12-18 22:48:00,23.7,14.7,29.91,SSE,154,4.0,9.0,68,0.00,,---,0.00,VWS V14.00,2013-12-19 03:48:00,
2013-12-18 22:53:00,23.6,14.3,29.91,SSE,154,4.0,9.0,67,0.00,,---,0.00,VWS V14.00,2013-12-19 03:53:00,
2013-12-18 22:58:00,23.6,14.3,29.91,SSE,155,2.0,6.0,67,0.00,,---,0.00,VWS V14.00,2013-12-19 03:58:00,
2013-12-18 23:00:00,23.6,14.3,29.91,SSE,154,6.0,9.0,67,0.00,,---,0.00,VWS V14.00,2013-12-19 04:00:00,
2013-12-18 23:03:00,23.5,14.2,29.90,SSE,155,6.0,8.0,67,0.00,,---,0.00,VWS V14.00,2013-12-19 04:03:00,
2013-12-18 23:08:00,23.4,14.1,29.90,SSE,150,2.0,10.0,67,0.00,,---,0.00,VWS V14.00,2013-12-19 04:08:00,
2013-12-18 23:13:00,23.2,14.2,29.90,SSE,152,5.0,10.0,68,0.00,,---,0.00,VWS V14.00,2013-12-19 04:13:00,
2013-12-18 23:18:00,23.0,14.0,29.90,SSE,151,1.0,10.0,68,0.00,,---,0.00,VWS V14.00,2013-12-19 04:18:00,
2013-12-18 23:23:00,22.8,13.8,29.90,SSE,154,4.0,10.0,68,0.00,,---,0.00,VWS V14.00,2013-12-19 04:23:00,
2013-12-18 23:28:00,22.6,14.0,29.89,SSE,155,2.0,4.0,69,0.00,,---,0.00,VWS V14.00,2013-12-19 04:28:00,
2013-12-18 23:30:00,22.7,13.7,29.89,SSE,154,2.0,10.0,68,0.00,,---,0.00,VWS V14.00,2013-12-19 04:30:00,
2013-12-18 23:33:00,22.4,13.8,29.90,SSE,155,4.0,5.0,69,0.00,,---,0.00,VWS V14.00,2013-12-19 04:33:00,
2013-12-18 23:38:00,22.4,13.8,29.89,SSE,152,4.0,5.0,69,0.00,,---,0.00,VWS V14.00,2013-12-19 04:38:00,
2013-12-18 23:43:00,22.2,13.9,29.89,SSE,151,6.0,6.0,70,0.00,,---,0.00,VWS V14.00,2013-12-19 04:43:00,
2013-12-18 23:48:00,22.3,14.0,29.89,SSE,152,2.0,7.0,70,0.00,,---,0.00,VWS V14.00,2013-12-19 04:48:00,
2013-12-18 23:53:00,22.3,14.0,29.89,SSE,152,5.0,7.0,70,0.00,,---,0.00,VWS V14.00,2013-12-19 04:53:00,
2013-12-18 23:58:00,22.4,14.1,29.89,SSE,151,4.0,6.0,70,0.00,,---,0.00,VWS V14.00,2013-12-19 04:58:00,